Content
SEND FEEDBACK

Daily
Averages
Monthly
Summary
United States of America

BERKELEY, MISSOURI


Home > North America > United States > Missouri
Elevation: 564 feet     Latitude: 38 45N     Longitude: 090 22W

WEATHER
 
SELECT A DAY
Number of Records: 203,542;   Date Range: 1/1/95 - 8/30/14
 
SHARE

PRINT THIS DATA

[ ← Previous Day ]
WEATHER ALMANAC - FEBRUARY 12, 2013
[ Next Day → ]
[ °C ]   °F
Weather ElementAverageHighLow
Temperature38.4 °F45 °F (1:51 pm)28.9 °F (5:51 am)
Dewpoint25.5 °F28.9 °F (11:51 pm)21.9 °F (2:51 pm)
Humidity61.1 %82 % (5:51 am)42 % (2:51 pm)
Barometer30.09 in30.19 in (7:51 am)29.97 in (9:51 pm)
Wind Speed1.9 mph5.8 mph (1:51 am)
Weather ElementAverage
Visibility10 mi
Wind DirectionENE (67 °)

Weather ElementTotal
Precipitation---
Heating Degree Days28.1 (Base 65)
Averaged from 23 records on February 12, 2013
WEATHER CONDITIONS BREAKOUT
WIND DIRECTION BREAKOUT
WEATHER BY HOUR - FEBRUARY 12, 2013
[ °C ]   °F
Local TimeTemperatureDewpointHumidityBarometerVisibilityWind DirectionWind SpeedGust SpeedPrecipitationEventsConditions
1:51 AM33.1 °F24.1 °F70 %30.17 in10.0 miNW (310°)5.8 mphClear
2:51 AM33.1 °F24.1 °F70 %30.18 in10.0 miCalmClear
3:51 AM30.9 °F24.1 °F76 %30.17 in10.0 miCalmClear
4:51 AM30.0 °F23.0 °F75 %30.17 in10.0 miCalmClear
5:51 AM28.9 °F24.1 °F82 %30.18 in10.0 miCalmClear
6:51 AM28.9 °F23.0 °F78 %30.17 in10.0 miCalmPartly Cloudy
7:51 AM33.1 °F26.1 °F75 %30.19 in10.0 miSW (220°)3.5 mphMostly Cloudy
8:51 AM36.0 °F27.0 °F70 %30.19 in10.0 miCalmMostly Cloudy
9:51 AM39.0 °F27.0 °F62 %30.16 in10.0 miNNW (330°)4.6 mphOvercast
10:51 AM41.0 °F24.1 °F51 %30.15 in10.0 miNW (310°)5.8 mphOvercast
11:51 AM43.0 °F26.1 °F51 %30.13 in10.0 miWNW (300°)5.8 mphOvercast
12:51 PM43.0 °F25.0 °F49 %30.14 in10.0 miCalmOvercast
1:51 PM45.0 °F24.1 °F44 %30.09 in10.0 miCalmOvercast
2:51 PM44.1 °F21.9 °F42 %30.08 in10.0 miCalmOvercast
3:51 PM45.0 °F23.0 °F42 %30.05 in10.0 miCalmOvercast
4:51 PM43.0 °F26.1 °F51 %30.04 in10.0 miCalmOvercast
5:51 PM42.1 °F26.1 °F53 %30.02 in10.0 miCalmMostly Cloudy
6:51 PM42.1 °F28.0 °F58 %30.00 in10.0 miNNE (30°)5.8 mphMostly Cloudy
7:51 PM41.0 °F28.0 °F60 %29.99 in10.0 miCalmOvercast
8:51 PM41.0 °F28.0 °F60 %29.98 in10.0 miNNE (20°)5.8 mphOvercast
9:51 PM39.9 °F27.0 °F60 %29.97 in10.0 miNNE (20°)5.8 mphOvercast
10:51 PM39.9 °F27.0 °F60 %29.98 in10.0 miCalmOvercast
11:51 PM39.0 °F28.9 °F67 %29.98 in10.0 miCalmOvercast
Hourly data recorded from KSTL, located miles away from Berkeley, Missouri







STORIES FROM OUR PARTNERS